Weather History for San Jose, Guatemala

Change the Weather History Date:

Wednesday, September 11, 2013

  Actual Average Record
Temperature  
Mean Temperature 81 °F -  
Max Temperature 87 °F 86 °F 93 °F (2005)
Min Temperature 75 °F 72 °F 59 °F (2008)
Cooling Degree Days 16    
Growing Degree Days 31 (Base 50)    
Moisture  
Dew Point 76 °F    
Average Humidity 90    
Maximum Humidity 100    
Minimum Humidity 64    
Precipitation  
Precipitation 0.00 in - - ()
Sea Level Pressure  
Sea Level Pressure 29.83 in    
Wind  
Wind Speed 3 mph ()    
Max Wind Speed 21 mph    
Max Gust Speed 34 mph    
Visibility 5.8 miles    
Events Rain    
Averages and records for this station are not official NWS values.
T = Trace of Precipitation, MM = Missing Value Source: Averaged Metar Reports

Daily Weather History Graph

Daily Weather History Graph

Search for Another Location

Airport:

Trip Planner

Search our weather history database for the weather conditions in past years. The results will help you decide how hot, cold, wet, or windy it might be!

Date:

Astronomy

Sep. 11, 2013 Rise Set
Actual Time 5:52 AM CST 6:07 PM CST
Civil Twilight 5:30 AM CST 6:28 PM CST
Nautical Twilight 5:05 AM CST 6:53 PM CST
Astronomical Twilight 4:40 AM CST 7:18 PM CST
Moon 11:19 AM CST (9/11) 11:05 PM CST (9/11)
Length of Visible Light 12h 57m
Length of Day
12h 15m
Waxing Crescent, 39% of the Moon is Illuminated
Sep 11
Waxing Crescent
Sep 12
First Quarter
Sep 19
Full
Sep 26
Last Quarter
Oct 4
New

Hourly Weather History & Observations

Time (CST) Temp. Heat Index Dew Point Humidity Pressure Visibility Wind Dir Wind Speed Gust Speed Precip Events Conditions
12:00 AM 75.2 °F - 73.4 °F 94% 29.86 in 6.2 mi Calm Calm - N/A   Overcast
1:00 AM 75.2 °F - 73.4 °F 94% 29.80 in 6.2 mi Calm Calm - N/A   Scattered Clouds
2:00 AM 75.2 °F - 73.4 °F 94% 29.80 in 6.2 mi Calm Calm - N/A   Scattered Clouds
3:00 AM 75.2 °F - 73.4 °F 94% 29.77 in 6.2 mi Calm Calm - N/A   Partly Cloudy
4:00 AM 75.2 °F - 73.4 °F 94% 29.80 in 6.2 mi Calm Calm - N/A   Partly Cloudy
5:00 AM 75.2 °F - 73.4 °F 94% 29.80 in 6.2 mi Calm Calm - N/A   Scattered Clouds
6:00 AM 75 °F - 74 °F 96% 29.80 in 25 mi Calm Calm - -   Partly Cloudy
6:00 AM 75.2 °F - 73.4 °F 94% 29.80 in 6.2 mi Calm Calm - N/A   Scattered Clouds
7:00 AM 77.0 °F - 75.2 °F 94% 29.83 in 6.2 mi Calm Calm - N/A   Scattered Clouds
8:00 AM 78.8 °F - 77.0 °F 94% 29.83 in 6.2 mi NE 4.6 mph - N/A   Scattered Clouds
9:00 AM 82.4 °F 90.9 °F 77.0 °F 84% 29.86 in 6.2 mi Calm Calm - N/A   Mostly Cloudy
10:00 AM 82.4 °F 89.5 °F 75.2 °F 79% 29.86 in 5.0 mi ESE 11.5 mph - N/A   Mostly Cloudy
11:00 AM 84.2 °F 94.1 °F 77.0 °F 79% 29.86 in 5.0 mi ESE 20.7 mph - N/A   Mostly Cloudy
12:00 PM 87 °F - 76 °F 64% 29.82 in 25 mi SSW 20.7 mph - -   Overcast
12:00 PM 87.8 °F 99.7 °F 77.0 °F 70% 29.83 in 6.2 mi ESE 20.7 mph - N/A   Scattered Clouds
1:00 PM 86.0 °F 96.9 °F 77.0 °F 74% 29.80 in 6.2 mi East 16.1 mph 34.5 mph N/A   Mostly Cloudy
2:00 PM 86.0 °F 96.9 °F 77.0 °F 74% 29.80 in 5.0 mi ESE 11.5 mph 29.9 mph N/A   Scattered Clouds
3:00 PM 82.4 °F 90.9 °F 77.0 °F 84% 29.80 in 6.2 mi ESE 20.7 mph - N/A   Mostly Cloudy
4:00 PM 80.6 °F 88.1 °F 78.8 °F 94% 29.80 in 3.7 mi Calm Calm - N/A Rain Rain
5:00 PM 78.8 °F - 77.0 °F 94% 29.77 in 3.7 mi Calm Calm - N/A Rain Rain
6:00 PM 78.8 °F - 77.0 °F 94% 29.80 in 6.2 mi Calm Calm - N/A   Overcast
7:00 PM 77.0 °F - 77.0 °F 100% 29.83 in 6.2 mi Calm Calm - N/A   Overcast
8:00 PM 77.0 °F - 77.0 °F 100% 29.86 in 6.2 mi North 4.6 mph - N/A   Overcast
9:00 PM 77.0 °F - 77.0 °F 100% 29.86 in 5.6 mi NE 6.9 mph - N/A Rain Light Rain
10:00 PM 77.0 °F - 77.0 °F 100% 29.92 in 5.6 mi Calm Calm - N/A Rain Rain
11:00 PM 75.2 °F - 75.2 °F 100% 29.89 in 5.6 mi Calm Calm - N/A Rain Rain